DW9711 Weather Reports


Display with metric or nautical units.
time (UTC)temp
F
wind
direction
speed
MPH
gust
MPH
rain 1hr
in
rain 24hr
in
rain mn
in
humidity
%
barometer
mb
20260904044051 82 192 0.0 0.0 0.00 0.00 0.00 77 1012.3
20260904043550 82 192 0.0 0.0 0.00 0.00 0.00 77 1012.2
20260904043058 82 192 0.0 0.0 0.00 0.00 0.00 76 1012.2
20260904042553 82 192 0.0 0.0 0.00 0.00 0.00 76 1012.3
20260904042050 82 192 0.0 0.0 0.00 0.00 0.00 76 1012.3
20260904041550 82 192 0.0 0.0 0.00 0.00 0.00 76 1012.3
20260904041050 82 192 0.0 0.0 0.00 0.00 0.00 75 1012.3
20260904040550 82 192 0.0 0.0 0.00 0.00 0.00 75 1012.4
20260904035549 83 192 0.0 0.0 0.00 0.00 0.00 75 1012.4
20260904035051 83 192 0.0 0.0 0.00 0.00 0.00 75 1012.4
20260904034550 83 192 0.0 0.0 0.00 0.00 0.00 75 1012.4
20260904034051 83 192 0.0 0.0 0.00 0.00 0.00 74 1012.4
20260904033549 83 192 0.0 0.0 0.00 0.00 0.00 74 1012.4
20260904033048 83 192 0.0 0.0 0.00 0.00 0.00 74 1012.2
20260904032548 83 192 0.0 0.0 0.00 0.00 0.00 73 1012.3
20260904032048 83 192 0.0 0.0 0.00 0.00 0.00 73 1012.3
20260904031555 84 192 0.0 0.0 0.00 0.00 0.00 73 1012.3
20260904031050 84 192 0.0 0.0 0.00 0.00 0.00 73 1012.3
20260904030548 84 192 0.0 0.0 0.00 0.00 0.00 73 1012.3
20260904030047 84 192 0.0 0.0 0.00 0.00 0.00 73 1012.4
20260904025547 84 192 0.0 0.0 0.00 0.00 0.00 73 1012.3
20260904025047 84 192 0.0 0.0 0.00 0.00 0.00 73 1012.3
20260904024547 84 192 0.0 0.0 0.00 0.00 0.00 73 1012.3
20260904024048 84 192 0.0 0.0 0.00 0.00 0.00 73 1012.2
20260904023550 84 192 0.0 0.0 0.00 0.00 0.00 73 1012.3
20260904023046 85 192 0.0 0.0 0.00 0.00 0.00 73 1012.3
20260904022546 85 192 0.0 0.0 0.00 0.00 0.00 73 1012.3
20260904022046 85 192 0.0 0.0 0.00 0.00 0.00 73 1012.3
20260904021545 85 192 0.0 0.0 0.00 0.00 0.00 73 1012.2
20260904021045 85 192 0.0 0.0 0.00 0.00 0.00 73 1012.2
20260904020545 85 192 0.0 0.0 0.00 0.00 0.00 72 1012.1
20260904020047 85 192 0.0 0.0 0.00 0.00 0.00 72 1012.0
20260904015544 85 192 0.0 0.0 0.00 0.00 0.00 72 1011.9
20260904015044 86 192 0.0 0.0 0.00 0.00 0.00 72 1011.9
20260904014545 86 192 0.0 0.0 0.00 0.00 0.00 72 1011.9
20260904014045 86 192 0.0 0.0 0.00 0.00 0.00 69 1011.8
20260904013544 86 192 0.0 0.0 0.00 0.00 0.00 69 1011.7
20260904013047 86 192 0.0 0.0 0.00 0.00 0.00 69 1011.8
20260904012547 86 192 0.0 0.0 0.00 0.00 0.00 68 1011.8
20260904012045 86 192 0.0 0.0 0.00 0.00 0.00 70 1011.8
20260904011546 87 192 0.0 0.0 0.00 0.00 0.00 71 1011.7
20260904011044 87 192 0.0 0.0 0.00 0.00 0.00 68 1011.7
20260904010543 87 192 0.0 0.0 0.00 0.00 0.00 68 1011.6
20260904010043 87 192 0.0 0.0 0.00 0.00 0.00 68 1011.5
20260904005543 88 192 0.0 0.0 0.00 0.00 0.00 67 1011.5
20260904005043 88 192 0.0 0.0 0.00 0.00 0.00 67 1011.5
20260904004543 88 192 0.0 0.0 0.00 0.00 0.00 67 1011.5
20260904004043 89 192 0.0 0.0 0.00 0.00 0.00 65 1011.5
20260904003542 89 192 0.0 0.0 0.00 0.00 0.00 65 1011.5
20260904003043 89 192 0.0 0.0 0.00 0.00 0.00 65 1011.5
20260904002546 90 192 0.0 0.0 0.00 0.00 0.00 65 1011.4
20260904002043 91 192 0.0 0.0 0.00 0.00 0.00 64 1011.3
20260904001546 91 192 0.0 0.0 0.00 0.00 0.00 64 1011.4
20260904001042 91 192 0.0 0.0 0.00 0.00 0.00 62 1011.4
20260904000542 92 192 0.0 0.0 0.00 0.00 0.00 61 1011.4
20260904000050 92 192 0.0 0.0 0.00 0.00 0.00 60 1011.3
20260903235542 92 192 0.0 0.0 0.00 0.00 0.00 60 1011.3
20260903235042 93 192 0.0 0.0 0.00 0.00 0.00 60 1011.2
20260903234541 93 192 0.0 0.0 0.00 0.00 0.00 58 1011.2
20260903234042 94 192 0.0 0.0 0.00 0.00 0.00 57 1011.1
20260903233547 94 192 0.0 0.0 0.00 0.00 0.00 56 1011.1
20260903233041 95 192 0.0 0.0 0.00 0.00 0.00 55 1011.0
20260903232541 95 192 0.0 1.0 0.00 0.00 0.00 54 1011.0
20260903232042 95 192 0.0 1.0 0.00 0.00 0.00 53 1011.1
20260903231544 96 192 0.0 1.0 0.00 0.00 0.00 53 1011.1
20260903231040 96 192 0.0 3.0 0.00 0.00 0.00 52 1011.1
20260903230540 97 192 0.0 3.0 0.00 0.00 0.00 51 1011.0
20260903230046 97 192 0.0 3.0 0.00 0.00 0.00 51 1011.0
20260903225540 97 192 0.0 3.0 0.00 0.00 0.00 49 1010.9
20260903225041 97 192 0.0 4.0 0.00 0.00 0.00 47 1010.9
20260903224540 98 192 1.0 4.0 0.00 0.00 0.00 47 1010.9
20260903224039 98 188 1.0 3.0 0.00 0.00 0.00 47 1010.8
20260903223541 98 188 0.0 3.0 0.00 0.00 0.00 47 1011.0
20260903223038 99 188 1.0 3.0 0.00 0.00 0.00 48 1011.0
20260903222538 99 188 0.0 3.0 0.00 0.00 0.00 47 1011.0
20260903222039 99 188 0.0 3.0 0.00 0.00 0.00 45 1011.0
20260903221539 99 200 0.0 2.0 0.00 0.00 0.00 47 1011.0
20260903221038 100 200 0.0 3.0 0.00 0.00 0.00 43 1011.0
20260903220538 100 200 0.0 2.0 0.00 0.00 0.00 45 1010.9
20260903220038 100 200 0.0 2.0 0.00 0.00 0.00 45 1011.0
20260903215539 100 200 0.0 2.0 0.00 0.00 0.00 42 1010.9
20260903215036 100 200 0.0 3.0 0.00 0.00 0.00 46 1010.9
20260903214540 99 200 0.0 3.0 0.00 0.00 0.00 44 1011.0
20260903214036 99 200 0.0 4.0 0.00 0.00 0.00 44 1011.1
20260903213538 99 200 1.0 4.0 0.00 0.00 0.00 43 1011.0
20260903213042 99 225 0.0 3.0 0.00 0.00 0.00 45 1011.1
20260903212535 99 225 1.0 3.0 0.00 0.00 0.00 45 1011.2
20260903212034 99 225 0.0 5.0 0.00 0.00 0.00 45 1011.2
20260903211535 99 225 0.0 5.0 0.00 0.00 0.00 45 1011.3
20260903211032 99 189 1.0 3.0 0.00 0.00 0.00 45 1011.4
20260903210532 99 160 0.0 3.0 0.00 0.00 0.00 45 1011.4
20260903210031 99 160 1.0 4.0 0.00 0.00 0.00 45 1011.4
20260903205530 99 160 1.0 4.0 0.00 0.00 0.00 44 1011.5
20260903205030 99 158 0.0 2.0 0.00 0.00 0.00 49 1011.5
20260903204529 99 158 0.0 1.0 0.00 0.00 0.00 46 1011.5
20260903204029 98 158 0.0 3.0 0.00 0.00 0.00 46 1011.6
20260903203533 99 158 1.0 5.0 0.00 0.00 0.00 45 1011.7
20260903203029 100 152 1.0 5.0 0.00 0.00 0.00 45 1011.6
20260903202528 99 184 0.0 4.0 0.00 0.00 0.00 46 1011.6
20260903202027 99 184 1.0 4.0 0.00 0.00 0.00 45 1011.8
20260903201533 99 190 0.0 5.0 0.00 0.00 0.00 47 1011.8
20260903201030 99 190 2.0 5.0 0.00 0.00 0.00 47 1011.8
20260903200532 99 120 1.0 5.0 0.00 0.00 0.00 45 1011.9
20260903200024 99 118 0.0 4.0 0.00 0.00 0.00 45 1011.9
20260903195523 99 113 1.0 5.0 0.00 0.00 0.00 47 1012.0
20260903195026 99 116 1.0 5.0 0.00 0.00 0.00 48 1012.1
20260903194525 98 186 0.0 2.0 0.00 0.00 0.00 47 1012.1
20260903194020 97 63 0.0 0.0 0.00 0.00 0.00 49 1012.1
20260903193520 97 63 0.0 2.0 0.00 0.00 0.00 49 1012.2
20260903193020 97 52 0.0 3.0 0.00 0.00 0.00 51 1012.2
20260903192526 97 52 1.0 3.0 0.00 0.00 0.00 52 1012.3
20260903192021 98 53 0.0 3.0 0.00 0.00 0.00 48 1012.3
20260903191518 98 53 1.0 5.0 0.00 0.00 0.00 49 1012.3
20260903191018 98 39 1.0 5.0 0.00 0.00 0.00 50 1012.5
20260903190517 98 184 0.0 5.0 0.00 0.00 0.00 48 1012.5
20260903190016 98 186 1.0 5.0 0.00 0.00 0.00 44 1012.6
20260903185513 98 130 0.0 3.0 0.00 0.00 0.00 48 1012.7
20260903185013 98 321 0.0 3.0 0.00 0.00 0.00 47 1012.7
20260903184513 97 321 0.0 3.0 0.00 0.00 0.00 49 1012.8
20260903184013 98 321 0.0 4.0 0.00 0.00 0.00 47 1012.8
20260903183511 97 321 1.0 4.0 0.00 0.00 0.00 49 1012.8
20260903183011 97 302 1.0 4.0 0.00 0.00 0.00 48 1012.8
20260903182512 97 302 1.0 4.0 0.00 0.00 0.00 49 1012.9
20260903182008 96 302 0.0 3.0 0.00 0.00 0.00 48 1012.9
20260903181508 96 302 1.0 4.0 0.00 0.00 0.00 49 1013.0
20260903181008 96 302 1.0 4.0 0.00 0.00 0.00 50 1013.0
20260903180510 97 301 1.0 4.0 0.00 0.00 0.00 51 1013.1
20260903180012 96 286 0.0 4.0 0.00 0.00 0.00 50 1013.2
20260903175510 96 314 1.0 4.0 0.00 0.00 0.00 51 1013.2
20260903175004 96 313 0.0 2.0 0.00 0.00 0.00 52 1013.3
20260903174505 96 313 0.0 4.0 0.00 0.00 0.00 54 1013.3
20260903174006 96 313 1.0 4.0 0.00 0.00 0.00 50 1013.3
20260903173503 96 313 1.0 4.0 0.00 0.00 0.00 50 1013.4
20260903173003 95 313 0.0 4.0 0.00 0.00 0.00 53 1013.5
20260903172503 96 313 0.0 4.0 0.00 0.00 0.00 52 1013.5
20260903172002 95 296 0.0 3.0 0.00 0.00 0.00 53 1013.5
20260903171506 95 296 0.0 3.0 0.00 0.00 0.00 49 1013.6
20260903171033 95 296 0.0 5.0 0.00 0.00 0.00 50 1013.5
20260903170600 96 296 1.0 5.0 0.00 0.00 0.00 48 1013.6
20260903170105 96 333 1.0 4.0 0.00 0.00 0.00 50 1013.6
20260903165559 96 304 2.0 4.0 0.00 0.00 0.00 49 1013.6
20260903165101 96 275 0.0 4.0 0.00 0.00 0.00 51 1013.8
20260903164556 96 275 0.0 5.0 0.00 0.00 0.00 51 1013.8
20260903164055 96 298 1.0 6.0 0.00 0.00 0.00 51 1013.9
20260903163555 95 290 1.0 4.0 0.00 0.00 0.00 50 1014.0
20260903163053 95 224 0.0 5.0 0.00 0.00 0.00 49 1014.0
20260903162553 95 227 0.0 5.0 0.00 0.00 0.00 51 1014.1
20260903162051 95 219 1.0 5.0 0.00 0.00 0.00 52 1014.1
20260903161550 94 194 1.0 4.0 0.00 0.00 0.00 51 1014.1
20260903161049 94 196 1.0 4.0 0.00 0.00 0.00 52 1014.1
20260903160548 94 215 0.0 4.0 0.00 0.00 0.00 53 1014.1
20260903160047 94 215 1.0 5.0 0.00 0.00 0.00 54 1014.1
20260903155545 93 255 1.0 5.0 0.00 0.00 0.00 56 1014.1
20260903155045 93 202 0.0 5.0 0.00 0.00 0.00 55 1014.1
20260903154547 93 202 1.0 4.0 0.00 0.00 0.00 56 1014.1
20260903154042 93 202 1.0 4.0 0.00 0.00 0.00 59 1014.1
20260903153540 92 202 0.0 4.0 0.00 0.00 0.00 58 1014.2
20260903153046 92 194 1.0 6.0 0.00 0.00 0.00 61 1014.3
20260903152538 91 199 2.0 6.0 0.00 0.00 0.00 60 1014.3
20260903152039 91 209 1.0 4.0 0.00 0.00 0.00 64 1014.2
20260903151537 91 209 0.0 5.0 0.00 0.00 0.00 64 1014.2
20260903151034 90 209 0.0 5.0 0.00 0.00 0.00 64 1014.2
20260903150535 90 209 0.0 3.0 0.00 0.00 0.00 64 1014.3
20260903150032 90 209 0.0 3.0 0.00 0.00 0.00 64 1014.2
20260903145530 89 210 0.0 4.0 0.00 0.00 0.00 66 1014.2
20260903145029 89 215 0.0 4.0 0.00 0.00 0.00 67 1014.2
20260903144528 89 215 1.0 4.0 0.00 0.00 0.00 67 1014.2
20260903144026 88 215 0.0 2.0 0.00 0.00 0.00 68 1014.2
20260903143527 88 215 0.0 4.0 0.00 0.00 0.00 69 1014.2
20260903143022 87 215 0.0 4.0 0.00 0.00 0.00 70 1014.2
20260903142521 87 215 0.0 5.0 0.00 0.00 0.00 71 1014.2
20260903142021 86 215 0.0 5.0 0.00 0.00 0.00 71 1014.3
20260903141530 86 215 0.0 5.0 0.00 0.00 0.00 71 1014.3
20260903141017 85 161 0.0 0.0 0.00 0.00 0.00 74 1014.4
20260903140516 85 161 0.0 0.0 0.00 0.00 0.00 75 1014.4
20260903140016 84 161 0.0 0.0 0.00 0.00 0.00 74 1014.3
20260903135512 84 126 0.0 0.0 0.00 0.00 0.00 75 1014.4
20260903135011 83 125 0.0 0.0 0.00 0.00 0.00 75 1014.5
20260903134509 83 124 0.0 0.0 0.00 0.00 0.00 78 1014.5
20260903134008 83 124 0.0 0.0 0.00 0.00 0.00 77 1014.5
20260903133507 82 124 0.0 0.0 0.00 0.00 0.00 78 1014.5
20260903133006 82 124 0.0 0.0 0.00 0.00 0.00 79 1014.5
20260903132505 82 124 0.0 0.0 0.00 0.00 0.00 80 1014.5
20260903132005 81 124 0.0 0.0 0.00 0.00 0.00 80 1014.5
20260903131502 81 124 0.0 0.0 0.00 0.00 0.00 81 1014.5
20260903131100 81 124 0.0 0.0 0.00 0.00 0.00 81 1014.5
20260903130559 80 124 0.0 0.0 0.00 0.00 0.00 82 1014.5
20260903130058 80 124 0.0 0.0 0.00 0.00 0.00 83 1014.4
20260903125556 79 124 0.0 0.0 0.00 0.00 0.00 83 1014.5
20260903125056 79 124 0.0 0.0 0.00 0.00 0.00 83 1014.5
20260903124556 79 124 0.0 0.0 0.00 0.00 0.00 83 1014.5
20260903124053 78 124 0.0 0.0 0.00 0.00 0.00 84 1014.4
20260903123552 78 124 0.0 0.0 0.00 0.00 0.00 85 1014.5
20260903123051 77 124 0.0 0.0 0.00 0.00 0.00 85 1014.5
20260903122552 77 124 0.0 0.0 0.00 0.00 0.00 86 1014.4
20260903122049 77 124 0.0 0.0 0.00 0.00 0.00 85 1014.4
20260903121548 77 124 0.0 0.0 0.00 0.00 0.00 85 1014.4
20260903121051 77 124 0.0 0.0 0.00 0.00 0.00 86 1014.3
20260903120547 77 124 0.0 0.0 0.00 0.00 0.00 86 1014.4
20260903120050 76 124 0.0 0.0 0.00 0.00 0.00 86 1014.3
20260903115545 76 124 0.0 0.0 0.00 0.00 0.00 87 1014.3
20260903115045 76 124 0.0 0.0 0.00 0.00 0.00 87 1014.2
20260903114545 76 124 0.0 0.0 0.00 0.00 0.00 87 1014.2
20260903114043 76 124 0.0 0.0 0.00 0.00 0.00 87 1014.1
20260903113542 76 124 0.0 0.0 0.00 0.00 0.00 87 1014.1
20260903113041 76 124 0.0 0.0 0.00 0.00 0.00 87 1014.0
20260903112541 76 124 0.0 0.0 0.00 0.00 0.00 87 1013.9
20260903112040 76 124 0.0 0.0 0.00 0.00 0.00 86 1014.0
20260903111550 76 124 0.0 0.0 0.00 0.00 0.00 86 1014.0
20260903111044 76 124 0.0 0.0 0.00 0.00 0.00 86 1013.9
20260903110540 76 124 0.0 0.0 0.00 0.00 0.00 86 1013.8
20260903110040 76 124 0.0 0.0 0.00 0.00 0.00 86 1013.9
20260903105540 76 124 0.0 0.0 0.00 0.00 0.00 86 1013.8
20260903105039 77 124 0.0 0.0 0.00 0.00 0.00 86 1013.8
20260903104545 77 124 0.0 0.0 0.00 0.00 0.00 86 1013.8
20260903104036 77 124 0.0 0.0 0.00 0.00 0.00 87 1013.7
20260903103536 77 124 0.0 0.0 0.00 0.00 0.00 87 1013.6
20260903103049 77 124 0.0 0.0 0.00 0.00 0.00 86 1013.7
20260903102535 77 124 0.0 0.0 0.00 0.00 0.00 85 1013.6
20260903102034 77 124 0.0 0.0 0.00 0.00 0.00 85 1013.6
20260903101534 77 124 0.0 0.0 0.00 0.00 0.00 85 1013.6
20260903101037 77 124 0.0 0.0 0.00 0.00 0.00 85 1013.6
20260903100538 77 124 0.0 0.0 0.00 0.00 0.00 85 1013.6
20260903100036 77 124 0.0 0.0 0.00 0.00 0.00 85 1013.6
20260903095533 77 124 0.0 0.0 0.00 0.00 0.00 85 1013.6
20260903095032 77 124 0.0 0.0 0.00 0.00 0.00 85 1013.5
20260903094534 77 124 0.0 0.0 0.00 0.00 0.00 85 1013.5
20260903094035 77 124 0.0 0.0 0.00 0.00 0.00 85 1013.5
20260903093532 77 124 0.0 0.0 0.00 0.00 0.00 85 1013.5
20260903093044 77 124 0.0 0.0 0.00 0.00 0.00 84 1013.6
20260903092531 77 124 0.0 0.0 0.00 0.00 0.00 84 1013.6
20260903092035 77 124 0.0 0.0 0.00 0.00 0.00 84 1013.6
20260903091536 78 124 0.0 0.0 0.00 0.00 0.00 84 1013.5
20260903091031 78 124 0.0 0.0 0.00 0.00 0.00 84 1013.5
20260903090529 78 124 0.0 0.0 0.00 0.00 0.00 84 1013.4
20260903090033 78 124 0.0 0.0 0.00 0.00 0.00 84 1013.5
20260903085528 78 124 0.0 0.0 0.00 0.00 0.00 83 1013.4
20260903085027 78 124 0.0 0.0 0.00 0.00 0.00 83 1013.5
20260903084541 78 124 0.0 0.0 0.00 0.00 0.00 83 1013.5
20260903084027 78 124 0.0 0.0 0.00 0.00 0.00 83 1013.4
20260903083527 78 124 0.0 0.0 0.00 0.00 0.00 83 1013.4
20260903083027 78 124 0.0 0.0 0.00 0.00 0.00 83 1013.4
20260903082529 78 124 0.0 0.0 0.00 0.00 0.00 83 1013.4
20260903082026 78 124 0.0 0.0 0.00 0.00 0.00 83 1013.3
20260903081528 78 124 0.0 0.0 0.00 0.00 0.00 82 1013.3
20260903081030 78 124 0.0 0.0 0.00 0.00 0.00 82 1013.3
20260903080531 78 124 0.0 0.0 0.00 0.00 0.00 82 1013.2
20260903080025 78 124 0.0 0.0 0.00 0.00 0.00 82 1013.2
20260903075528 78 124 0.0 0.0 0.00 0.00 0.00 82 1013.2
20260903075023 78 124 0.0 0.0 0.00 0.00 0.00 82 1013.2
20260903074523 78 124 0.0 0.0 0.00 0.00 0.00 82 1013.1
20260903074026 79 124 0.0 0.0 0.00 0.00 0.00 82 1013.1
20260903073523 79 124 0.0 0.0 0.00 0.00 0.00 82 1013.1
20260903073026 79 124 0.0 0.0 0.00 0.00 0.00 82 1013.1
20260903072523 79 124 0.0 0.0 0.00 0.00 0.00 82 1013.2
20260903072025 79 124 0.0 0.0 0.00 0.00 0.00 82 1013.1
20260903071522 79 124 0.0 0.0 0.00 0.00 0.00 82 1013.1
20260903071023 79 124 0.0 0.0 0.00 0.00 0.00 82 1013.1
20260903070521 79 124 0.0 0.0 0.00 0.00 0.00 82 1013.2
20260903070026 79 124 0.0 0.0 0.00 0.00 0.00 81 1013.1
20260903065520 79 124 0.0 0.0 0.00 0.00 0.00 81 1013.0
20260903065019 79 124 0.0 0.0 0.00 0.00 0.00 81 1013.1
20260903064520 79 124 0.0 0.0 0.00 0.00 0.00 81 1013.2
20260903064019 79 124 0.0 0.0 0.00 0.00 0.00 81 1013.1
20260903063519 79 124 0.0 0.0 0.00 0.00 0.00 81 1013.2
20260903063018 79 124 0.0 0.0 0.00 0.00 0.00 81 1013.2
20260903062517 79 124 0.0 0.0 0.00 0.00 0.00 81 1013.2
20260903062017 79 124 0.0 0.0 0.00 0.00 0.00 81 1013.3
20260903061521 79 124 0.0 0.0 0.00 0.00 0.00 80 1013.3
20260903061018 80 124 0.0 0.0 0.00 0.00 0.00 80 1013.3
20260903060515 80 124 0.0 0.0 0.00 0.00 0.00 80 1013.4
20260903060017 80 124 0.0 0.0 0.00 0.00 0.00 80 1013.4
20260903055517 80 124 0.0 0.0 0.00 0.00 0.00 80 1013.4
20260903055014 80 124 0.0 0.0 0.00 0.00 0.00 79 1013.4
20260903054515 80 124 0.0 0.0 0.00 0.00 0.00 79 1013.4
20260903054013 80 124 0.0 0.0 0.00 0.00 0.00 79 1013.4
20260903053512 80 124 0.0 0.0 0.00 0.00 0.00 79 1013.4
20260903053012 80 124 0.0 0.0 0.00 0.00 0.00 78 1013.4
20260903052511 81 124 0.0 0.0 0.00 0.00 0.00 78 1013.4
20260903052011 81 124 0.0 0.0 0.00 0.00 0.00 78 1013.4
20260903051510 81 124 0.0 0.0 0.00 0.00 0.00 78 1013.4
20260903051009 81 124 0.0 0.0 0.00 0.00 0.00 78 1013.4
20260903050508 81 124 0.0 0.0 0.00 0.00 0.00 77 1013.5
20260903050033 81 124 0.0 0.0 0.00 0.00 0.00 77 1013.4
20260903045507 81 124 0.0 0.0 0.00 0.00 0.00 77 1013.3
20260903045006 81 124 0.0 0.0 0.00 0.00 0.00 77 1013.3
20260903044506 81 124 0.0 0.0 0.00 0.00 0.00 77 1013.2